When you browse on this site, cookies collect data to enhance your experience and personalize the content and advertising you see.
Visit our Privacy Policy to learn more. By continuing to use the site, you agree to this use of cookies and data.
  • In Hungary
  • List of Countries
  • For 7 days
  • Water Temperature
  • Satellite Maps
  • Weather Map
  • News
  • Weather Widgets
  • user-avatar
    Login

    Hourly Weather Partenit

    Today, 21 July, Sunday

    Time Temperature Precipitation Wind Pressure Humidity
    00:00 +20°C° 0 mm 3 mps 745 mmHg 59%
    01:00 +20°C° 0 mm 3 mps 744 mmHg 58%
    02:00 +19°C° 0 mm 3 mps 744 mmHg 57%
    03:00 +19°C° 0 mm 3 mps 744 mmHg 59%
    04:00 +19°C° 0 mm 3 mps 744 mmHg 61%
    05:00 +19°C° 0 mm 4 mps 744 mmHg 63%
    06:00 +22°C° 0 mm 3 mps 744 mmHg 56%
    07:00 +25°C° 0 mm 3 mps 744 mmHg 49%
    08:00 +27°C° 0 mm 3 mps 744 mmHg 42%
    09:00 +28°C° 0 mm 3 mps 744 mmHg 40%
    10:00 +29°C° 0 mm 3 mps 744 mmHg 37%
    11:00 +30°C° 0 mm 3 mps 744 mmHg 35%
    12:00 +31°C° 0 mm 3 mps 744 mmHg 34%
    13:00 +31°C° 0 mm 2 mps 744 mmHg 32%
    14:00 +32°C° 0 mm 2 mps 744 mmHg 31%
    15:00 +31°C° 0 mm 2 mps 744 mmHg 34%
    16:00 +30°C° 0 mm 2 mps 744 mmHg 38%
    17:00 +29°C° 0 mm 2 mps 744 mmHg 41%
    18:00 +27°C° 0 mm 2 mps 744 mmHg 46%
    19:00 +25°C° 0 mm 2 mps 744 mmHg 50%
    20:00 +23°C° 0 mm 1 mps 744 mmHg 55%
    21:00 +23°C° 0 mm 2 mps 744 mmHg 54%
    22:00 +21°C° 0 mm 3 mps 744 mmHg 52%
    23:00 +21°C° 0 mm 3 mps 744 mmHg 51%

    Tomorrow, 22 July, Monday

    Time Temperature Precipitation Wind Pressure Humidity
    00:00 +21°C° 0 mm 3 mps 744 mmHg 51%
    01:00 +21°C° 0 mm 2 mps 744 mmHg 50%
    02:00 +21°C° 0 mm 2 mps 744 mmHg 50%
    03:00 +21°C° 0 mm 2 mps 744 mmHg 52%
    04:00 +21°C° 0 mm 2 mps 744 mmHg 54%
    05:00 +21°C° 0 mm 2 mps 744 mmHg 56%
    06:00 +24°C° 0 mm 2 mps 744 mmHg 51%
    07:00 +26°C° 0 mm 3 mps 744 mmHg 47%
    08:00 +29°C° 0 mm 4 mps 744 mmHg 42%
    09:00 +29°C° 0 mm 3 mps 744 mmHg 42%
    10:00 +30°C° 0 mm 3 mps 744 mmHg 41%
    11:00 +30°C° 0 mm 2 mps 745 mmHg 40%
    12:00 +30°C° 0 mm 2 mps 744 mmHg 41%
    13:00 +30°C° 0 mm 2 mps 744 mmHg 43%
    14:00 +30°C° 0 mm 3 mps 744 mmHg 44%
    15:00 +30°C° 0 mm 2 mps 744 mmHg 45%
    16:00 +29°C° 0 mm 2 mps 744 mmHg 47%
    17:00 +29°C° 0 mm 2 mps 743 mmHg 48%
    18:00 +27°C° 0 mm 2 mps 743 mmHg 56%
    19:00 +25°C° 0 mm 2 mps 743 mmHg 64%
    20:00 +23°C° 0 mm 2 mps 743 mmHg 72%
    21:00 +21°C° 0 mm 2 mps 743 mmHg 71%
    22:00 +21°C° 0 mm 2 mps 743 mmHg 69%
    23:00 +21°C° 0 mm 2 mps 743 mmHg 68%

    Day after tomorrow, 23 July, Tuesday

    Time Temperature Precipitation Wind Pressure Humidity
    00:00 +21°C° 0 mm 2 mps 742 mmHg 66%
    01:00 +21°C° 0 mm 2 mps 742 mmHg 64%
    02:00 +21°C° 0 mm 2 mps 742 mmHg 62%
    03:00 +21°C° 0 mm 2 mps 742 mmHg 61%
    04:00 +21°C° 0 mm 2 mps 741 mmHg 60%
    05:00 +22°C° 0 mm 1 mps 741 mmHg 58%
    06:00 +24°C° 0 mm 1 mps 741 mmHg 53%
    07:00 +26°C° 0 mm 1 mps 741 mmHg 48%
    08:00 +29°C° 0 mm 1 mps 741 mmHg 43%
    09:00 +30°C° 0 mm 1 mps 741 mmHg 41%
    10:00 +30°C° 0 mm 1 mps 741 mmHg 40%
    11:00 +31°C° 0 mm 1 mps 741 mmHg 39%
    12:00 +30°C° 0 mm 2 mps 740 mmHg 47%
    13:00 +28°C° 0 mm 2 mps 740 mmHg 54%
    14:00 +26°C° 0 mm 3 mps 740 mmHg 62%
    15:00 +26°C° 0.3 mm 3 mps 740 mmHg 68%
    16:00 +25°C° 0.3 mm 3 mps 740 mmHg 74%
    17:00 +24°C° 0.3 mm 3 mps 740 mmHg 79%
    18:00 +22°C° 0.2 mm 3 mps 740 mmHg 83%
    19:00 +21°C° 0.2 mm 4 mps 740 mmHg 88%
    20:00 +20°C° 0.2 mm 4 mps 740 mmHg 92%
    21:00 +20°C° 0 mm 4 mps 739 mmHg 92%
    22:00 +20°C° 0 mm 4 mps 739 mmHg 92%
    23:00 +20°C° 0 mm 3 mps 739 mmHg 92%

    24 July, Wednesday

    Time Temperature Precipitation Wind Pressure Humidity
    00:00 +20°C° 0 mm 3 mps 739 mmHg 93%
    01:00 +19°C° 0 mm 4 mps 739 mmHg 94%
    02:00 +19°C° 0 mm 4 mps 739 mmHg 95%
    03:00 +18°C° 0 mm 4 mps 739 mmHg 95%
    04:00 +18°C° 0 mm 4 mps 739 mmHg 94%
    05:00 +18°C° 0 mm 4 mps 739 mmHg 94%
    06:00 +19°C° 0 mm 4 mps 739 mmHg 87%
    07:00 +20°C° 0 mm 4 mps 739 mmHg 81%
    08:00 +21°C° 0 mm 3 mps 739 mmHg 74%
    09:00 +24°C° 0 mm 3 mps 739 mmHg 65%
    10:00 +26°C° 0 mm 3 mps 739 mmHg 56%
    11:00 +27°C° 0 mm 2 mps 739 mmHg 47%
    12:00 +27°C° 0 mm 3 mps 739 mmHg 49%
    13:00 +27°C° 0 mm 4 mps 739 mmHg 51%
    14:00 +27°C° 0 mm 4 mps 739 mmHg 53%
    15:00 +26°C° 0.2 mm 4 mps 739 mmHg 56%
    16:00 +25°C° 0.2 mm 4 mps 739 mmHg 60%
    17:00 +24°C° 0.2 mm 3 mps 739 mmHg 63%
    18:00 +22°C° 0 mm 3 mps 739 mmHg 70%
    19:00 +20°C° 0 mm 3 mps 739 mmHg 77%
    20:00 +18°C° 0 mm 3 mps 739 mmHg 84%
    21:00 +18°C° 0 mm 3 mps 740 mmHg 83%
    22:00 +18°C° 0 mm 3 mps 740 mmHg 83%
    23:00 +18°C° 0 mm 3 mps 740 mmHg 82%

    25 July, Thursday

    Time Temperature Precipitation Wind Pressure Humidity
    00:00 +18°C° 0 mm 3 mps 740 mmHg 83%
    01:00 +17°C° 0 mm 3 mps 739 mmHg 84%
    02:00 +17°C° 0 mm 2 mps 739 mmHg 84%
    03:00 +17°C° 0 mm 2 mps 739 mmHg 84%
    04:00 +17°C° 0 mm 2 mps 739 mmHg 83%
    05:00 +17°C° 0 mm 2 mps 739 mmHg 83%
    06:00 +18°C° 0 mm 2 mps 739 mmHg 75%
    07:00 +21°C° 0 mm 1 mps 739 mmHg 67%
    08:00 +23°C° 0 mm 1 mps 739 mmHg 59%
    09:00 +23°C° 0.2 mm 1 mps 739 mmHg 60%
    10:00 +24°C° 0.2 mm 2 mps 739 mmHg 62%
    11:00 +24°C° 0.2 mm 2 mps 740 mmHg 63%
    12:00 +24°C° 0.6 mm 3 mps 739 mmHg 64%
    13:00 +24°C° 0.6 mm 3 mps 739 mmHg 65%
    14:00 +24°C° 0.6 mm 3 mps 739 mmHg 66%
    15:00 +24°C° 0.2 mm 3 mps 739 mmHg 66%
    16:00 +24°C° 0.2 mm 3 mps 739 mmHg 67%
    17:00 +24°C° 0.2 mm 3 mps 739 mmHg 68%
    18:00 +21°C° 0 mm 3 mps 739 mmHg 77%
    19:00 +20°C° 0 mm 3 mps 739 mmHg 85%
    20:00 +18°C° 0 mm 2 mps 739 mmHg 93%
    21:00 +18°C° 0 mm 2 mps 739 mmHg 94%
    22:00 +18°C° 0 mm 3 mps 739 mmHg 94%
    23:00 +18°C° 0 mm 3 mps 738 mmHg 94%

    26 July, Friday

    Time Temperature Precipitation Wind Pressure Humidity
    00:00 +18°C° 0 mm 2 mps 738 mmHg 94%
    01:00 +18°C° 0 mm 2 mps 738 mmHg 94%
    02:00 +17°C° 0 mm 2 mps 738 mmHg 94%
    03:00 +17°C° 0 mm 2 mps 738 mmHg 94%
    04:00 +18°C° 0 mm 2 mps 738 mmHg 95%
    05:00 +18°C° 0 mm 2 mps 738 mmHg 95%
    06:00 +19°C° 0 mm 2 mps 738 mmHg 86%
    07:00 +22°C° 0 mm 1 mps 738 mmHg 77%
    08:00 +24°C° 0 mm 1 mps 738 mmHg 69%
    09:00 +25°C° 0.3 mm 1 mps 738 mmHg 68%
    10:00 +25°C° 0.3 mm 1 mps 738 mmHg 68%
    11:00 +26°C° 0.3 mm 2 mps 738 mmHg 67%
    12:00 +26°C° 0.7 mm 2 mps 738 mmHg 71%
    13:00 +25°C° 0.7 mm 2 mps 738 mmHg 74%
    14:00 +24°C° 0.7 mm 2 mps 738 mmHg 77%
    15:00 +24°C° 0.6 mm 1 mps 738 mmHg 78%
    16:00 +24°C° 0.6 mm 1 mps 738 mmHg 79%
    17:00 +24°C° 0.6 mm 1 mps 738 mmHg 80%
    18:00 +23°C° 0.1 mm 1 mps 738 mmHg 84%
    19:00 +21°C° 0.1 mm 2 mps 739 mmHg 88%
    20:00 +20°C° 0.1 mm 2 mps 739 mmHg 91%
    21:00 +19°C° 0 mm 2 mps 739 mmHg 89%
    22:00 +19°C° 0 mm 2 mps 739 mmHg 87%
    23:00 +19°C° 0 mm 2 mps 739 mmHg 84%
    Show more